TITAN 3A TRANSTAGE R/B, 1001

Orbit data source: Space-Track

TITAN 3A TRANSTAGE R/B, 1001 is space debris in LEO originally from a launch on Thu, 11 Feb 1965 UTC via a TITAN IIIA launch vehicle from the Air Force Eastern Test Range (AFETR). Debris objects in space refer to the collection of defunct objects orbiting the Earth. Examples of debris include non-operational satellites, rocket bodies, and fragments generated from explosions, collisions, or faulty payload assembly.

Loading next visibility...
Identifier
1001, 1965-008A
Orbit
LEO
Country
Flag of USUS
Related business
Manufacturer
Martin Marietta
Mission
Spacecraft
Bus & Motor
TRUSS, Unknown motor
Mass
336 kg wet, 336 kg dry
Launch date (UTC)
1965-02-11 (61 years ago)
Launch vehicle
TITAN IIIA
Launch site
Air Force Eastern Test Range (AFETR)
Object type
Payload
Rocket body
Debris
Shape & HBR
Unknown
Radar Cross Section
Large (>1 m²)

Expand to show TLE details & history
Last TLE update: 15 hours ago

TLE from 15 hours ago
0 TITAN 3A TRANSTAGE R/B
1 01001U 65008A   25293.10132020  .00000012  00000-0  47741-3 0  9990
2 01001  32.1496 319.6173 0017884 112.3157 247.9239  9.90722154197661
Epoch: 2025-10-20T02:25Z
TLE epoch observation values (Epoch: 2025-10-20T02:25:54.065Z)
Latitude
0.00003°
Longitude
-105.66638°
Altitude
2,784.298 km
Speed
6.596 km/s
True Right ascension
21h 18m 28s
True Declination
0° 00' 00"
Sunlit
Object was in daylight at epoch
Visualization orbit readout
Latitude
Unknown
Longitude
Unknown
Altitude
Unknown
Speed
Unknown
Apparent Right ascension
Unknown
Apparent Declination
Unknown
Sunlit
N/A
Visualization observer readout
Local Sidereal Time
12:29:31
Azimuth
Unknown
Elevation
Unknown
Doppler factor
Unknown
Orbital elements
Apogee altitude
2,798.314 km
Perigee altitude
2,765.55 km
Semi-major axis
9,160.069 km
Eccentricity
0.00179
Inclination
32.1496°
RAAN
319.6173°
Arg. of periapsis
112.3157°
True anomaly
247.73415°
Mean anomaly
247.9239°
Eccentric anomaly
247.82901°
Mean motion
2.47568 °/min
Orbital period
145.41 mins
BSTAR
0.00047741
Loading maneuver chart data...
Computing Atmospheric mass density...
Loading historical data...
Loading historical data...
Loading historical data...
Loading historical data...
Loading historical data...
Loading historical data...
Loading historical data...
Other satellites on launch #8 in the year 1965 (1965-02-11 UTC)

Documentation

Showing up to 5 results
|